Regional Weather Roundup
Issued by NWS

Home | Current Version | Previous Version | Text Only | Print | Product List | Glossary Off
Versions: 1 2 3 4 5 6 7 8 9 10 11 12 13 14 15 16 17 18 19 20 21 22 23 24 25 26 27 28 29 30 31 32 33 34 35 36 37 38 39 40 41 42 43 44 45 46 47 48 49 50

000
ASUS43 KOAX 250810
RWRNE

WEATHER ROUNDUP FOR NEBRASKA
NATIONAL WEATHER SERVICE OMAHA NE
200 AM CST SAT FEB 25 2017

NOTES: SATELLITE DATA IS BEING USED TO AUGMENT CLOUD COVER ABOVE
       12000 FEET.
       "FAIR" INDICATES FEW OR NO CLOUDS BELOW 12,000 FEET WITH NO
       SIGNIFICANT WEATHER AND/OR OBSTRUCTIONS TO VISIBILITY.

  * THESE STATIONS DO NOT REPORT WEATHER SUCH AS RAIN...SNOW OR FOG.

NEZ001>004-019>022-054>056-250900-
NEBRASKA PANHANDLE

CITY           SKY/WX    TMP DP  RH WIND       PRES   REMARKS
SCOTTSBLUFF    FOG        5   2  87 NW5       30.02F VSB 3/4 WCI  -4
ALLIANCE       FOG       -3  -5  90 NW3       30.00F VSB 1/2
CHADRON        CLOUDY     2  -2  83 CALM      30.02F
KIMBALL        CLEAR      7   5  90 W9        29.98F WCI  -6
SIDNEY         CLEAR      6   3  87 W7        30.02F WCI  -6
$$

NEZ057>060-069>072-079>082-250900-
SOUTHWEST NEBRASKA

CITY           SKY/WX    TMP DP  RH WIND       PRES   REMARKS
NORTH PLATTE   CLOUDY     9   5  84 CALM      30.12F
IMPERIAL       CLEAR     11   8  88 CALM      30.11F
LEXINGTON      CLOUDY    15   9  76 NW12      30.14F WCI   2
MCCOOK         CLEAR     11   8  88 SW6       30.16F WCI   1
OGALLALA       CLOUDY     6   3  86 CALM      30.09F
$$

NEZ005>010-023>029-035>040-094-250900-
NORTH CENTRAL NEBRASKA

CITY           SKY/WX    TMP DP  RH WIND       PRES   REMARKS
VALENTINE      CLOUDY     2  -2  83 W3        30.08F
AINSWORTH      CLOUDY     8   5  88 W7        30.08F WCI  -4
BROKEN BOW     CLOUDY    14   8  77 NW10      30.11S WCI   1
O`NEILL        CLOUDY    12   8  83 NW7       30.10F WCI   2
ORD            CLOUDY     8   4  83 N3        30.11F
THEDFORD       CLOUDY     4   2  90 CALM      30.09F
$$

NEZ041-046>049-061>064-073>077-083>087-250900-
SOUTH CENTRAL NEBRASKA

CITY           SKY/WX    TMP DP  RH WIND       PRES   REMARKS
GRAND ISLAND   CLEAR     14  10  84 W12       30.13R WCI   0
AURORA         CLEAR     15  10  82 NW6       30.11S WCI   6
HASTINGS       CLEAR     15   9  76 W9        30.14R WCI   3
HEBRON         CLEAR     20  14  77 NW9       30.15R WCI   9
HOLDREGE       CLOUDY    14   9  80 W7        30.14S WCI   4
KEARNEY *      CLOUDY    16   7  67 NW8       30.14S WCI   5
YORK           CLEAR     16  10  79 NW9       30.12R WCI   4
$$

NEZ011>018-030>034-042>045-250900-
NORTHEAST NEBRASKA

CITY           SKY/WX    TMP DP  RH WIND       PRES   REMARKS
NORFOLK        CLOUDY    18  11  74 NW12      30.09F WCI   5
ALBION         CLOUDY    15   8  72 NW7       30.10F WCI   5
BLAIR          CLEAR     19  14  82 NW10      30.06F WCI   7
FREMONT        CLEAR     20  15  81 NW12      30.10S WCI   8
TEKAMAH        CLOUDY    18  12  77 NW9       30.10R WCI   7
WAYNE          CLOUDY    18  13  82 NW14      30.09S WCI   4
$$

NEZ050>053-065>068-078-088>093-250900-
SOUTHEAST NEBRASKA

CITY           SKY/WX    TMP DP  RH WIND       PRES   REMARKS
LINCOLN        CLEAR     23  14  68 N14       30.11S WCI  11
OMAHA EPPLEY   PTCLDY    20  13  74 NW10      30.08S WCI   9
BEATRICE       CLEAR     20  15  82 NW6       30.12R WCI  12
FALLS CITY     CLEAR     24  17  74 NW13      30.09R WCI  12
NEBRASKA CITY  CLEAR     23  14  68 N15       30.08S WCI  10
PLATTSMOUTH    CLEAR     22  13  68 NW14      30.08S WCI   9
$$

NEZ044-045-051>053-067-250900-
OMAHA AREA

CITY           SKY/WX    TMP DP  RH WIND       PRES   REMARKS
OMAHA EPPLEY   PTCLDY    20  13  74 NW10      30.08S WCI   9
BLAIR          CLEAR     19  14  82 NW10      30.06F WCI   7
FREMONT        CLEAR     20  15  81 NW12      30.10S WCI   8
MILLARD        CLEAR     24  17  74 NW12      30.10R WCI  13
OFFUTT AFB     CLEAR     20  13  74 NW12      30.09R WCI   7
PLATTSMOUTH    CLEAR     22  13  68 NW14      30.08S WCI   9
WAHOO          FAIR      21  15  76 NW12      30.09S WCI   9
$$



USA.gov is the U.S. government's official web portal to all federal, state and local government web resources and services.